Location: Wildlife_Club
(35.6000°N, 81.4330°W)
Time: 05:42:23
(UTC-04:00)

A-11 Canister half - Pass Details

Date: 17 June 2019
Orbit: 1526 x 1682 km, 47.3° (Epoch: 24 August)

Event Time Altitude Azimuth Distance (km) Brightness Sun altitude
Exits shadow 04:25:26 - 176° (S) 4,128 10.9 -17.4°
Reaches altitude 10° 04:27:02 10° 170° (S) 3,762 10.7 -17.2°
Maximum altitude 04:33:31 21° 126° (SE) 2,963 10.6 -16.3°
Drops below altitude 10° 04:39:53 10° 82° (E) 3,708 11.8 -15.4°
Sets 04:43:53 0° 67° (ENE) 4,683 12.9 -14.8°
